Regional Weather Roundup
Issued by NWS

Home | Current Version | Previous Version | Text Only | Print | Product List | Glossary Off
Versions: 1 2 3 4 5 6 7 8 9 10 11 12 13 14 15 16 17 18 19 20 21 22 23 24 25 26 27

000
ASUS45 KBOU 290407
RWRCO

WEATHER ROUNDUP FOR COLORADO
NATIONAL WEATHER SERVICE DENVER/BOULDER CO
1000 PM MDT THU JUL 28 2016

NOTE: "FAIR" INDICATES FEW OR NO CLOUDS BELOW 12000 FEET WITH NO
SIGNIFICANT WEATHER AND/OR OBSTRUCTIONS TO VISIBILITY.

COZ001>005-013-030-031-290500-
...NORTHWEST COLORADO...

CITY           SKY/WX    TMP DP  RH WIND       PRES   REMARKS
CRAIG          FAIR      67  39  35 CALM      30.16R
HAYDEN         FAIR      72  30  21 SW7       30.18R
MEEKER         FAIR      66  38  35 NE6       30.18R
MOUNT WERNER   NOT AVBL
STEAMBOAT SPGS FAIR      67  41  38 N3        30.22R
WALDEN         FAIR      59  41  51 SE5       30.36R
$$

COZ006>008-011-290500-
...WEST CENTRAL VALLEYS...

CITY           SKY/WX    TMP DP  RH WIND       PRES   REMARKS
GRAND JUNCTION FAIR      80  27  14 VRB3      30.00R
MONTROSE       FAIR      80  37  21 SE10      30.13R
EAGLE          FAIR      73  32  21 CALM      30.21R
RIFLE          FAIR      78  28  16 S6        30.09R
DELTA          NOT AVBL
NUCLA          NOT AVBL
$$

COZ017>023-064>068-290500-
...SOUTHWEST COLORADO...

CITY           SKY/WX    TMP DP  RH WIND       PRES   REMARKS
DURANGO        FAIR      71  35  26 N8        30.21R
CORTEZ         FAIR      77  38  24 E5        30.14R
PAGOSA SPRINGS FAIR      75  31  20 S5        30.34R
TELLURIDE      FAIR      66  32  28 SE7       30.47R
WOLF CREEK PAS FAIR      57  28  33 SW9       30.73R
$$

COZ009-010-012-014-032>034-037-058>063-290500-
...CENTRAL COLORADO...

CITY           SKY/WX    TMP DP  RH WIND       PRES   REMARKS
ASPEN          FAIR      61  36  39 SW10      30.31R
BUENA VISTA    FAIR      70  24  17 CALM      30.34R
COPPER MTN     FAIR      59  19  21 NW8       30.69S
BERTHOUD PASS  HAZE      45  30  57 E6        30.72S THUNDER VSB<1/4
COTTONWOOD PAS FAIR      70  16  12 SW10      30.50R
GUNNISON       FAIR      63  36  36 W3        30.34R
KREMMLING      FAIR      63  28  27 S3        30.28R
LEADVILLE      FAIR      56  25  30 NE3       30.49R
MONARCH PASS   FAIR      59  21  23 MISG      30.79S
SALIDA         FAIR      75  41  30 SE9G16    30.37R
SUNLIGHT       NOT AVBL
WILKERSON PASS CLOUDY    50  48  93 E12G18    30.67R FOG
$$

COZ069>075-290500-
...SAN LUIS VALLEY/SANGRE DE CRISTO MOUNTAINS...

CITY           SKY/WX    TMP DP  RH WIND       PRES   REMARKS
ALAMOSA        FAIR      65  40  39 E7        30.27R
LA VETA PASS   FAIR      57  45  62 N8        30.54R
SAGUACHE       FAIR      72  30  21 CALM      30.31R
$$

COZ035-036-038>040-290500-
...NORTHERN COLORADO FRONT RANGE...

CITY           SKY/WX    TMP DP  RH WIND       PRES   REMARKS
DENVER INTL AP MOCLDY    68  56  65 SE7       30.22S
DMNS CITY PARK   N/A     71  58  62 SE3G13    30.24R
AURORA         MOCLDY    68  59  73 E7        30.24R
FRONT RANGE AP NOT AVBL
ERIE MUNI ARPT CLOUDY    72  54  54 CALM      30.23S
BOULDER MUN AP MOCLDY    70  54  56 CALM      30.23R
CENTENNIAL     TSTM      68  58  70 E6        30.26S
BROOMFIELD     MOCLDY    72  54  53 CALM      30.26R
LONGMONT       NOT AVBL
$$

COZ041-046-047-076>085-087-088-290500-
...PIKES PEAK/PALMER DIVIDE AND SOUTHERN FOOTHILLS...

CITY           SKY/WX    TMP DP  RH WIND       PRES   REMARKS
COLO. SPRINGS  HAIL      62  58  86 SE24G37   30.30R VSB 1
A. F. ACADEMY  CLOUDY    71  59  67 NW14      30.30R
SCHRIEVER AFB  NOT AVBL
ELLICOTT       NOT AVBL
FALCON         NOT AVBL
FORT CARSON    TSTM      63  59  88 N14       30.27R
LIMON          CLOUDY    64  61  90 SE15      30.23R
MONUMENT HILL  MOCLDY    63  59  88 E9        30.37R
TRINIDAD       NOT AVBL
$$

COZ042>045-048>051-090-091-290500-
...NORTHEAST COLORADO...

CITY           SKY/WX    TMP DP  RH WIND       PRES   REMARKS
GREELEY ARPT   FAIR      64  59  82 NW3       30.22R
AKRON          FAIR      64  59  83 SE8       30.20R
BURLINGTON     FAIR      68  61  78 NE13      30.17F
WRAY           NOT AVBL
STERLING       NOT AVBL
HOLYOKE        NOT AVBL
FORT MORGAN    NOT AVBL
$$

COZ086-089-092>099-290500-
...SOUTHEAST COLORADO...

CITY           SKY/WX    TMP DP  RH WIND       PRES   REMARKS
PUEBLO         FAIR      75  58  55 NE20      30.15R
LA JUNTA       FAIR      77  55  46 E23G31    30.09R
LAMAR          HVY RAIN  67  61  81 N23G38    30.20R
SPRINGFIELD      N/A     70  60  70 NE9       30.13R
$$




USA.gov is the U.S. government's official web portal to all federal, state and local government web resources and services.